Airport Information

KORS - Orcas Island Airport

KORS 191935Z AUTO 17008G13KT 10SM CLR 18/07 A3013 RMK AO2


  • General Information

  • Coordinates: N 48°42'29"/ W 122°54'38"
  • Location: N/A
  • Surveyed Elevation: 31 MSL

Operations

Flow Name Active Runways Conditions

Green background denotes normal operations.


Common Frequencies

Callsign Frequency Position Name

More at the Document Center


Charts

Name Description Cycle
FEGBA TWO Page 1 1904
Name Description Cycle